Time,TemperatureF,DewpointF,PressureIn,WindDirection,WindDirectionDegrees,WindSpeedMPH,WindSpeedGustMPH,Humidity,HourlyPrecipIn,Conditions,Clouds,dailyrainin,SoftwareType,DateUTC
2013-07-26 00:01:00,83.5,66.1,30.31,North,0,0.0,0.0,56,0.00,CLR,SCT,0.00,WeatherDisplay:10.37,2013-07-26 04:01:00,
2013-07-26 00:02:00,83.5,66.1,30.31,North,0,0.0,0.0,56,0.00,CLR,SCT,0.00,WeatherDisplay:10.37,2013-07-26 04:02:00,
2013-07-26 00:07:00,83.3,66.0,30.31,North,0,0.0,0.0,56,0.00,CLR,SCT,0.00,WeatherDisplay:10.37,2013-07-26 04:07:00,
2013-07-26 00:12:00,83.1,66.3,30.31,North,0,0.0,0.0,57,0.00,CLR,SCT,0.00,WeatherDisplay:10.37,2013-07-26 04:12:00,
2013-07-26 00:17:00,82.9,66.1,30.31,North,0,0.0,0.0,57,0.00,CLR,SCT,0.00,WeatherDisplay:10.37,2013-07-26 04:17:00,
2013-07-26 00:22:00,82.9,66.1,30.30,North,0,0.0,0.0,57,0.00,CLR,SCT,0.00,WeatherDisplay:10.37,2013-07-26 04:22:00,
2013-07-26 00:27:00,82.8,66.0,30.30,North,0,0.0,0.0,57,0.00,CLR,SCT,0.00,WeatherDisplay:10.37,2013-07-26 04:27:00,
2013-07-26 00:32:00,82.8,66.0,30.30,North,0,0.0,0.0,57,0.00,CLR,SCT,0.00,WeatherDisplay:10.37,2013-07-26 04:32:00,
2013-07-26 00:37:00,82.8,66.0,30.30,North,0,0.0,0.0,57,0.00,CLR,SCT,0.00,WeatherDisplay:10.37,2013-07-26 04:37:00,
2013-07-26 00:42:00,82.6,65.8,30.29,North,0,0.0,0.0,57,0.00,CLR,SCT,0.00,WeatherDisplay:10.37,2013-07-26 04:42:00,
2013-07-26 00:47:00,82.6,65.8,30.29,North,0,0.0,0.0,57,0.00,CLR,SCT,0.00,WeatherDisplay:10.37,2013-07-26 04:47:00,
2013-07-26 00:52:00,82.4,65.1,30.29,North,0,0.0,0.0,56,0.00,CLR,SCT,0.00,WeatherDisplay:10.37,2013-07-26 04:52:00,
2013-07-26 00:57:00,82.4,65.6,30.29,North,0,0.0,0.0,57,0.00,CLR,SCT,0.00,WeatherDisplay:10.37,2013-07-26 04:57:00,
2013-07-26 01:02:00,82.4,65.6,30.30,North,0,0.0,0.0,57,0.00,CLR,SCT,0.00,WeatherDisplay:10.37,2013-07-26 05:02:00,
2013-07-26 01:07:00,82.2,65.5,30.30,North,0,0.0,0.0,57,0.00,CLR,SCT,0.00,WeatherDisplay:10.37,2013-07-26 05:07:00,
2013-07-26 01:12:00,82.2,66.0,30.30,North,0,0.0,0.0,58,0.00,CLR,SCT,0.00,WeatherDisplay:10.37,2013-07-26 05:12:00,
2013-07-26 01:17:00,82.2,66.0,30.30,North,0,0.0,0.0,58,0.00,CLR,SCT,0.00,WeatherDisplay:10.37,2013-07-26 05:17:00,
2013-07-26 01:22:00,82.0,66.3,30.29,North,0,0.0,0.0,59,0.00,CLR,SCT,0.00,WeatherDisplay:10.37,2013-07-26 05:22:00,
2013-07-26 01:27:00,81.9,65.6,30.29,North,0,0.0,0.0,58,0.00,CLR,SCT,0.00,WeatherDisplay:10.37,2013-07-26 05:27:00,
2013-07-26 01:32:00,81.9,66.1,30.29,North,0,0.0,0.0,59,0.00,CLR,SCT,0.00,WeatherDisplay:10.37,2013-07-26 05:32:00,
2013-07-26 01:37:00,81.9,66.1,30.29,North,0,0.0,0.0,59,0.00,CLR,SCT,0.00,WeatherDisplay:10.37,2013-07-26 05:37:00,
2013-07-26 01:42:00,81.7,66.0,30.29,North,0,0.0,0.0,59,0.00,CLR,SCT,0.00,WeatherDisplay:10.37,2013-07-26 05:42:00,
2013-07-26 01:47:00,81.7,66.0,30.29,North,0,0.0,0.0,59,0.00,CLR,SCT,0.00,WeatherDisplay:10.37,2013-07-26 05:47:00,
2013-07-26 01:52:00,81.5,65.8,30.29,North,0,0.0,0.0,59,0.00,CLR,SCT,0.00,WeatherDisplay:10.37,2013-07-26 05:52:00,
2013-07-26 01:57:00,81.5,66.3,30.29,North,0,0.0,0.0,60,0.00,CLR,SCT,0.00,WeatherDisplay:10.37,2013-07-26 05:57:00,
2013-07-26 02:02:00,81.3,65.6,30.28,North,0,0.0,0.0,59,0.00,CLR,SCT,0.00,WeatherDisplay:10.37,2013-07-26 06:02:00,
2013-07-26 02:07:00,81.3,66.1,30.28,North,0,0.0,0.0,60,0.00,CLR,SCT,0.00,WeatherDisplay:10.37,2013-07-26 06:07:00,
2013-07-26 02:12:00,81.3,66.1,30.28,North,0,0.0,0.0,60,0.00,CLR,SCT,0.00,WeatherDisplay:10.37,2013-07-26 06:12:00,
2013-07-26 02:17:00,81.1,65.9,30.28,North,0,0.0,0.0,60,0.00,CLR,SCT,0.00,WeatherDisplay:10.37,2013-07-26 06:17:00,
2013-07-26 02:22:00,81.1,65.9,30.27,North,0,0.0,0.0,60,0.00,CLR,SCT,0.00,WeatherDisplay:10.37,2013-07-26 06:22:00,
2013-07-26 02:27:00,81.1,65.9,30.27,North,0,0.0,0.0,60,0.00,CLR,SCT,0.00,WeatherDisplay:10.37,2013-07-26 06:27:00,
2013-07-26 02:32:00,81.1,65.9,30.27,North,0,0.0,0.0,60,0.00,CLR,SCT,0.00,WeatherDisplay:10.37,2013-07-26 06:32:00,
2013-07-26 02:37:00,81.1,65.9,30.27,North,0,0.0,0.0,60,0.00,CLR,SCT,0.00,WeatherDisplay:10.37,2013-07-26 06:37:00,
2013-07-26 02:42:00,81.0,65.8,30.27,North,0,0.0,0.0,60,0.00,CLR,SCT,0.00,WeatherDisplay:10.37,2013-07-26 06:42:00,
2013-07-26 02:47:00,81.1,65.9,30.27,North,0,0.0,0.0,60,0.00,CLR,SCT,0.00,WeatherDisplay:10.37,2013-07-26 06:47:00,
2013-07-26 02:52:00,81.0,65.8,30.27,North,0,0.0,0.0,60,0.00,CLR,SCT,0.00,WeatherDisplay:10.37,2013-07-26 06:52:00,
2013-07-26 02:57:00,81.0,66.2,30.27,North,0,0.0,0.0,61,0.00,CLR,SCT,0.00,WeatherDisplay:10.37,2013-07-26 06:57:00,
2013-07-26 03:02:00,80.8,65.6,30.26,North,0,0.0,0.0,60,0.00,CLR,SCT,0.00,WeatherDisplay:10.37,2013-07-26 07:02:00,
2013-07-26 03:07:00,80.8,66.1,30.26,North,0,0.0,0.0,61,0.00,CLR,SCT,0.00,WeatherDisplay:10.37,2013-07-26 07:07:00,
2013-07-26 03:12:00,80.8,66.1,30.26,North,0,0.0,0.0,61,0.00,CLR,SCT,0.00,WeatherDisplay:10.37,2013-07-26 07:12:00,
2013-07-26 03:17:00,80.8,66.1,30.26,North,0,0.0,0.0,61,0.00,CLR,SCT,0.00,WeatherDisplay:10.37,2013-07-26 07:17:00,
2013-07-26 03:22:00,80.6,65.9,30.26,North,0,0.0,0.0,61,0.00,CLR,SCT,0.00,WeatherDisplay:10.37,2013-07-26 07:22:00,
2013-07-26 03:27:00,80.6,65.9,30.26,North,0,0.0,0.0,61,0.00,CLR,SCT,0.00,WeatherDisplay:10.37,2013-07-26 07:27:00,
2013-07-26 03:32:00,80.6,65.9,30.26,North,0,0.0,0.0,61,0.00,CLR,SCT,0.00,WeatherDisplay:10.37,2013-07-26 07:32:00,
2013-07-26 03:37:00,80.4,66.2,30.26,North,0,0.0,0.0,62,0.00,CLR,SCT,0.00,WeatherDisplay:10.37,2013-07-26 07:37:00,
2013-07-26 03:42:00,80.4,66.2,30.26,North,0,0.0,0.0,62,0.00,CLR,SCT,0.00,WeatherDisplay:10.37,2013-07-26 07:42:00,
2013-07-26 03:47:00,80.4,66.2,30.26,North,0,0.0,0.0,62,0.00,CLR,SCT,0.00,WeatherDisplay:10.37,2013-07-26 07:47:00,
2013-07-26 03:53:00,80.4,66.7,30.26,North,0,0.0,0.0,63,0.00,CLR,SCT,0.00,WeatherDisplay:10.37,2013-07-26 07:53:00,
2013-07-26 03:58:00,80.2,66.5,30.26,North,0,0.0,0.0,63,0.00,CLR,SCT,0.00,WeatherDisplay:10.37,2013-07-26 07:58:00,
2013-07-26 04:03:00,80.2,66.5,30.26,North,0,0.0,0.0,63,0.00,CLR,SCT,0.00,WeatherDisplay:10.37,2013-07-26 08:03:00,
2013-07-26 04:08:00,80.1,66.3,30.26,North,0,0.0,0.0,63,0.00,CLR,SCT,0.00,WeatherDisplay:10.37,2013-07-26 08:08:00,
2013-07-26 04:13:00,80.1,66.3,30.26,North,0,0.0,0.0,63,0.00,CLR,SCT,0.00,WeatherDisplay:10.37,2013-07-26 08:13:00,
2013-07-26 04:18:00,80.1,66.3,30.26,North,0,0.0,0.0,63,0.00,CLR,SCT,0.00,WeatherDisplay:10.37,2013-07-26 08:18:00,
2013-07-26 04:23:00,80.1,66.3,30.26,North,0,0.0,0.0,63,0.00,CLR,SCT,0.00,WeatherDisplay:10.37,2013-07-26 08:23:00,
2013-07-26 04:28:00,79.9,66.2,30.26,North,0,0.0,0.0,63,0.00,CLR,SCT,0.00,WeatherDisplay:10.37,2013-07-26 08:28:00,
2013-07-26 04:33:00,79.9,66.2,30.26,North,0,0.0,0.0,63,0.00,CLR,SCT,0.00,WeatherDisplay:10.37,2013-07-26 08:33:00,
2013-07-26 04:38:00,79.7,66.4,30.26,North,0,0.0,0.0,64,0.00,CLR,SCT,0.00,WeatherDisplay:10.37,2013-07-26 08:38:00,
2013-07-26 04:43:00,79.7,66.9,30.26,North,0,0.0,0.0,65,0.00,CLR,SCT,0.00,WeatherDisplay:10.37,2013-07-26 08:43:00,
2013-07-26 04:48:00,79.7,66.4,30.26,North,0,0.0,0.0,64,0.00,CLR,SCT,0.00,WeatherDisplay:10.37,2013-07-26 08:48:00,
2013-07-26 04:53:00,79.7,66.9,30.26,North,0,0.0,0.0,65,0.00,CLR,SCT,0.00,WeatherDisplay:10.37,2013-07-26 08:53:00,
2013-07-26 04:58:00,79.7,66.9,30.26,North,0,0.0,0.0,65,0.00,CLR,SCT,0.00,WeatherDisplay:10.37,2013-07-26 08:58:00,
2013-07-26 05:03:00,79.7,66.4,30.26,North,0,0.0,0.0,64,0.00,CLR,SCT,0.00,WeatherDisplay:10.37,2013-07-26 09:03:00,
2013-07-26 05:08:00,79.7,66.4,30.26,North,0,0.0,0.0,64,0.00,CLR,SCT,0.00,WeatherDisplay:10.37,2013-07-26 09:08:00,
2013-07-26 05:13:00,79.7,66.4,30.26,North,0,0.0,0.0,64,0.00,CLR,SCT,0.00,WeatherDisplay:10.37,2013-07-26 09:13:00,
2013-07-26 05:18:00,79.7,66.4,30.26,North,0,0.0,0.0,64,0.00,CLR,SCT,0.00,WeatherDisplay:10.37,2013-07-26 09:18:00,
2013-07-26 05:23:00,79.7,66.4,30.26,North,0,0.0,0.0,64,0.00,CLR,SCT,0.00,WeatherDisplay:10.37,2013-07-26 09:23:00,
2013-07-26 05:28:00,79.7,66.4,30.26,North,0,0.0,0.0,64,0.00,CLR,SCT,0.00,WeatherDisplay:10.37,2013-07-26 09:28:00,
2013-07-26 05:33:00,79.7,66.4,30.26,North,0,0.0,0.0,64,0.00,CLR,SCT,0.00,WeatherDisplay:10.37,2013-07-26 09:33:00,
2013-07-26 05:38:00,79.7,66.4,30.26,North,0,0.0,0.0,64,0.00,CLR,SCT,0.00,WeatherDisplay:10.37,2013-07-26 09:38:00,
2013-07-26 05:43:00,79.5,65.8,30.26,North,0,0.0,0.0,63,0.00,CLR,SCT,0.00,WeatherDisplay:10.37,2013-07-26 09:43:00,
2013-07-26 05:48:00,79.5,65.8,30.26,North,0,0.0,0.0,63,0.00,CLR,SCT,0.00,WeatherDisplay:10.37,2013-07-26 09:48:00,
2013-07-26 05:53:00,79.5,65.8,30.26,North,0,0.0,0.0,63,0.00,CLR,SCT,0.00,WeatherDisplay:10.37,2013-07-26 09:53:00,
2013-07-26 05:58:00,79.5,66.3,30.26,North,0,0.0,0.0,64,0.00,CLR,SCT,0.00,WeatherDisplay:10.37,2013-07-26 09:58:00,
2013-07-26 06:03:00,79.5,66.3,30.26,North,0,0.0,0.0,64,0.00,CLR,SCT,0.00,WeatherDisplay:10.37,2013-07-26 10:03:00,
2013-07-26 06:08:00,79.5,66.3,30.26,North,0,0.0,0.0,64,0.00,CLR,SCT,0.00,WeatherDisplay:10.37,2013-07-26 10:08:00,
2013-07-26 06:13:00,79.5,66.3,30.26,North,0,0.0,0.0,64,0.00,CLR,SCT,0.00,WeatherDisplay:10.37,2013-07-26 10:13:00,
2013-07-26 06:18:00,79.5,66.3,30.26,North,0,0.0,0.0,64,0.00,CLR,SCT,0.00,WeatherDisplay:10.37,2013-07-26 10:18:00,
2013-07-26 06:23:00,79.5,66.3,30.26,North,0,0.0,0.0,64,0.00,CLR,SCT,0.00,WeatherDisplay:10.37,2013-07-26 10:23:00,
2013-07-26 06:28:00,79.3,66.1,30.26,North,0,0.0,0.0,64,0.00,CLR,SCT,0.00,WeatherDisplay:10.37,2013-07-26 10:28:00,
2013-07-26 06:33:00,79.3,66.1,30.26,North,0,0.0,0.0,64,0.00,CLR,SCT,0.00,WeatherDisplay:10.37,2013-07-26 10:33:00,
2013-07-26 06:38:00,79.3,66.1,30.26,North,0,0.0,0.0,64,0.00,CLR,SCT,0.00,WeatherDisplay:10.37,2013-07-26 10:38:00,
2013-07-26 06:43:00,79.3,66.1,30.26,North,0,0.0,0.0,64,0.00,CLR,SCT,0.00,WeatherDisplay:10.37,2013-07-26 10:43:00,
2013-07-26 06:48:00,79.3,66.5,30.26,North,0,0.0,0.0,65,0.00,CLR,SCT,0.00,WeatherDisplay:10.37,2013-07-26 10:48:00,
2013-07-26 06:53:00,79.3,66.5,30.26,North,0,0.0,0.0,65,0.00,CLR,SCT,0.00,WeatherDisplay:10.37,2013-07-26 10:53:00,
2013-07-26 06:58:00,79.3,66.1,30.26,North,0,0.0,0.0,64,0.00,CLR,SCT,0.00,WeatherDisplay:10.37,2013-07-26 10:58:00,
2013-07-26 07:03:00,79.3,66.1,30.26,North,0,0.0,0.0,64,0.00,CLR,SCT,0.00,WeatherDisplay:10.37,2013-07-26 11:03:00,
2013-07-26 07:08:00,79.3,66.1,30.26,North,0,0.0,0.0,64,0.00,CLR,SCT,0.00,WeatherDisplay:10.37,2013-07-26 11:08:00,
2013-07-26 07:13:00,79.3,66.5,30.26,North,0,0.0,0.0,65,0.00,CLR,SCT,0.00,WeatherDisplay:10.37,2013-07-26 11:13:00,
2013-07-26 07:18:00,79.3,66.5,30.26,North,0,0.0,0.0,65,0.00,CLR,SCT,0.00,WeatherDisplay:10.37,2013-07-26 11:18:00,
2013-07-26 07:23:00,79.5,66.7,30.26,North,0,0.0,0.0,65,0.00,CLR,SCT,0.00,WeatherDisplay:10.37,2013-07-26 11:23:00,
2013-07-26 07:28:00,79.5,66.3,30.26,North,0,0.0,0.0,64,0.00,CLR,SCT,0.00,WeatherDisplay:10.37,2013-07-26 11:28:00,
2013-07-26 07:33:00,79.7,66.4,30.26,North,0,0.0,0.0,64,0.00,CLR,SCT,0.00,WeatherDisplay:10.37,2013-07-26 11:33:00,
2013-07-26 07:38:00,79.9,66.6,30.26,North,0,0.0,0.0,64,0.00,CLR,SCT,0.00,WeatherDisplay:10.37,2013-07-26 11:38:00,
2013-07-26 07:43:00,79.9,66.6,30.26,North,0,0.0,0.0,64,0.00,CLR,SCT,0.00,WeatherDisplay:10.37,2013-07-26 11:43:00,
2013-07-26 07:48:00,79.9,66.6,30.26,North,0,0.0,0.0,64,0.00,CLR,SCT,0.00,WeatherDisplay:10.37,2013-07-26 11:48:00,
2013-07-26 07:53:00,80.1,66.8,30.26,North,0,0.0,0.0,64,0.00,CLR,SCT,0.00,WeatherDisplay:10.37,2013-07-26 11:53:00,
2013-07-26 07:58:00,80.1,66.8,30.26,North,0,0.0,0.0,64,0.00,CLR,SCT,0.00,WeatherDisplay:10.37,2013-07-26 11:58:00,
2013-07-26 08:03:00,80.2,67.0,30.26,North,0,0.0,0.0,64,0.00,CLR,SCT,0.00,WeatherDisplay:10.37,2013-07-26 12:03:00,
2013-07-26 08:08:00,80.4,66.7,30.26,North,0,0.0,0.0,63,0.00,CLR,SCT,0.00,WeatherDisplay:10.37,2013-07-26 12:08:00,
2013-07-26 08:13:00,80.6,66.8,30.26,North,0,0.0,0.0,63,0.00,CLR,SCT,0.00,WeatherDisplay:10.37,2013-07-26 12:13:00,
2013-07-26 08:18:00,80.8,67.0,30.26,North,0,0.0,0.0,63,0.00,CLR,SCT,0.00,WeatherDisplay:10.37,2013-07-26 12:18:00,
2013-07-26 08:23:00,80.8,66.5,30.26,North,0,0.0,0.0,62,0.00,CLR,SCT,0.00,WeatherDisplay:10.37,2013-07-26 12:23:00,
2013-07-26 08:28:00,81.0,66.7,30.26,North,0,0.0,0.0,62,0.00,CLR,SCT,0.00,WeatherDisplay:10.37,2013-07-26 12:28:00,
2013-07-26 08:33:00,81.1,66.9,30.26,North,0,0.0,0.0,62,0.00,CLR,SCT,0.00,WeatherDisplay:10.37,2013-07-26 12:33:00,
2013-07-26 08:38:00,81.3,66.6,30.26,North,0,0.0,0.0,61,0.00,CLR,SCT,0.00,WeatherDisplay:10.37,2013-07-26 12:38:00,
2013-07-26 08:43:00,81.7,66.4,30.26,North,0,0.0,0.0,60,0.00,CLR,SCT,0.00,WeatherDisplay:10.37,2013-07-26 12:43:00,
2013-07-26 08:48:00,81.9,66.6,30.26,North,0,0.0,0.0,60,0.00,CLR,SCT,0.00,WeatherDisplay:10.37,2013-07-26 12:48:00,
2013-07-26 08:53:00,82.0,66.8,30.26,North,0,0.0,0.0,60,0.00,CLR,SCT,0.00,WeatherDisplay:10.37,2013-07-26 12:53:00,
2013-07-26 08:58:00,82.2,66.5,30.26,North,0,0.0,0.0,59,0.00,CLR,SCT,0.00,WeatherDisplay:10.37,2013-07-26 12:58:00,
2013-07-26 09:26:00,83.7,65.3,30.26,North,0,0.0,0.0,54,0.00,CLR,SCT,0.00,WeatherDisplay:10.37,2013-07-26 13:26:00,
2013-07-26 09:32:00,84.0,65.6,30.26,North,0,0.0,0.0,54,0.00,CLR,SCT,0.00,WeatherDisplay:10.37,2013-07-26 13:32:00,
2013-07-26 09:37:00,84.2,65.2,30.26,North,0,0.0,0.0,53,0.00,CLR,SCT,0.00,WeatherDisplay:10.37,2013-07-26 13:37:00,
2013-07-26 09:42:00,84.2,64.7,30.26,North,0,0.0,0.0,52,0.00,CLR,SCT,0.00,WeatherDisplay:10.37,2013-07-26 13:42:00,
2013-07-26 09:47:00,84.2,64.7,30.26,North,0,0.0,0.0,52,0.00,CLR,SCT,0.00,WeatherDisplay:10.37,2013-07-26 13:47:00,
2013-07-26 09:52:00,84.2,64.7,30.26,North,0,0.0,0.0,52,0.00,CLR,SCT,0.00,WeatherDisplay:10.37,2013-07-26 13:52:00,
2013-07-26 09:57:00,84.4,64.8,30.26,North,0,0.0,0.0,52,0.00,CLR,SCT,0.00,WeatherDisplay:10.37,2013-07-26 13:57:00,
2013-07-26 10:02:00,84.6,65.0,30.26,North,0,0.0,0.0,52,0.00,CLR,SCT,0.00,WeatherDisplay:10.37,2013-07-26 14:02:00,
2013-07-26 10:07:00,84.7,64.0,30.26,North,0,0.0,0.0,50,0.00,CLR,SCT,0.00,WeatherDisplay:10.37,2013-07-26 14:07:00,
2013-07-26 10:12:00,84.7,63.5,30.26,North,0,0.0,0.0,49,0.00,CLR,SCT,0.00,WeatherDisplay:10.37,2013-07-26 14:12:00,
2013-07-26 10:17:00,84.9,63.6,30.26,North,0,0.0,0.0,49,0.00,CLR,SCT,0.00,WeatherDisplay:10.37,2013-07-26 14:17:00,
2013-07-26 10:22:00,85.1,63.8,30.26,North,0,0.0,0.0,49,0.00,CLR,SCT,0.00,WeatherDisplay:10.37,2013-07-26 14:22:00,
2013-07-26 10:27:00,85.3,64.0,30.26,North,0,0.0,0.0,49,0.00,CLR,SCT,0.00,WeatherDisplay:10.37,2013-07-26 14:27:00,
2013-07-26 10:32:00,85.3,64.0,30.26,North,0,0.0,0.0,49,0.00,CLR,SCT,0.00,WeatherDisplay:10.37,2013-07-26 14:32:00,
2013-07-26 10:37:00,85.3,64.0,30.26,North,0,0.0,0.0,49,0.00,CLR,SCT,0.00,WeatherDisplay:10.37,2013-07-26 14:37:00,
2013-07-26 10:42:00,85.3,64.0,30.26,North,0,0.0,0.0,49,0.00,CLR,SCT,0.00,WeatherDisplay:10.37,2013-07-26 14:42:00,
2013-07-26 10:47:00,85.1,63.8,30.26,North,0,0.0,0.0,49,0.00,CLR,SCT,0.00,WeatherDisplay:10.37,2013-07-26 14:47:00,
2013-07-26 10:52:00,85.1,63.8,30.26,North,0,0.0,0.0,49,0.00,CLR,SCT,0.00,WeatherDisplay:10.37,2013-07-26 14:52:00,
2013-07-26 10:57:00,84.9,63.6,30.26,North,0,0.0,0.0,49,0.00,CLR,SCT,0.00,WeatherDisplay:10.37,2013-07-26 14:57:00,
2013-07-26 11:02:00,84.9,63.6,30.26,North,0,0.0,0.0,49,0.00,CLR,SCT,0.00,WeatherDisplay:10.37,2013-07-26 15:02:00,
2013-07-26 11:07:00,84.7,63.5,30.26,North,0,0.0,0.0,49,0.00,CLR,SCT,0.00,WeatherDisplay:10.37,2013-07-26 15:07:00,
2013-07-26 11:12:00,84.9,63.6,30.26,North,0,0.0,0.0,49,0.00,CLR,SCT,0.00,WeatherDisplay:10.37,2013-07-26 15:12:00,
2013-07-26 11:17:00,85.1,63.8,30.26,North,0,0.0,0.0,49,0.00,CLR,SCT,0.00,WeatherDisplay:10.37,2013-07-26 15:17:00,
2013-07-26 11:22:00,85.3,64.0,30.26,North,0,0.0,0.0,49,0.00,CLR,SCT,0.00,WeatherDisplay:10.37,2013-07-26 15:22:00,
2013-07-26 11:27:00,85.5,64.1,30.26,North,0,0.0,0.0,49,0.00,CLR,SCT,0.00,WeatherDisplay:10.37,2013-07-26 15:27:00,
2013-07-26 11:32:00,85.6,64.3,30.26,North,0,0.0,0.0,49,0.00,CLR,SCT,0.00,WeatherDisplay:10.37,2013-07-26 15:32:00,
2013-07-26 11:37:00,85.6,64.3,30.26,North,0,0.0,0.0,49,0.00,CLR,SCT,0.00,WeatherDisplay:10.37,2013-07-26 15:37:00,
2013-07-26 11:42:00,86.2,64.8,30.26,North,0,0.0,0.0,49,0.00,CLR,SCT,0.00,WeatherDisplay:10.37,2013-07-26 15:42:00,
2013-07-26 11:47:00,86.4,64.4,30.26,North,0,0.0,0.0,48,0.00,CLR,SCT,0.00,WeatherDisplay:10.37,2013-07-26 15:47:00,
2013-07-26 11:52:00,86.5,64.5,30.26,North,0,0.0,0.0,48,0.00,CLR,SCT,0.00,WeatherDisplay:10.37,2013-07-26 15:52:00,
2013-07-26 11:57:00,86.5,63.9,30.26,North,0,0.0,0.0,47,0.00,CLR,SCT,0.00,WeatherDisplay:10.37,2013-07-26 15:57:00,
2013-07-26 12:02:00,86.7,64.7,30.26,North,0,0.0,0.0,48,0.00,CLR,SCT,0.00,WeatherDisplay:10.37,2013-07-26 16:02:00,
2013-07-26 12:07:00,86.7,64.1,30.26,North,0,0.0,0.0,47,0.00,CLR,SCT,0.00,WeatherDisplay:10.37,2013-07-26 16:07:00,
2013-07-26 12:12:00,87.1,64.4,30.26,North,0,0.0,0.0,47,0.00,CLR,SCT,0.00,WeatherDisplay:10.37,2013-07-26 16:12:00,
2013-07-26 12:17:00,87.3,64.0,30.26,North,0,0.0,0.0,46,0.00,CLR,SCT,0.00,WeatherDisplay:10.37,2013-07-26 16:17:00,
2013-07-26 12:22:00,87.3,64.0,30.26,North,0,0.0,0.0,46,0.00,CLR,SCT,0.00,WeatherDisplay:10.37,2013-07-26 16:22:00,
2013-07-26 12:27:00,87.4,64.1,30.26,North,0,0.0,0.0,46,0.00,CLR,SCT,0.00,WeatherDisplay:10.37,2013-07-26 16:27:00,
2013-07-26 12:32:00,87.3,64.0,30.26,North,0,0.0,0.0,46,0.00,CLR,SCT,0.00,WeatherDisplay:10.37,2013-07-26 16:32:00,
2013-07-26 12:37:00,87.3,64.0,30.26,North,0,0.0,0.0,46,0.00,CLR,SCT,0.00,WeatherDisplay:10.37,2013-07-26 16:37:00,
2013-07-26 12:42:00,87.4,64.1,30.26,North,0,0.0,0.0,46,0.00,CLR,SCT,0.00,WeatherDisplay:10.37,2013-07-26 16:42:00,
2013-07-26 12:47:00,87.4,64.1,30.26,North,0,0.0,0.0,46,0.00,CLR,SCT,0.00,WeatherDisplay:10.37,2013-07-26 16:47:00,
2013-07-26 12:52:00,87.4,63.5,30.26,North,0,0.0,0.0,45,0.00,CLR,SCT,0.00,WeatherDisplay:10.37,2013-07-26 16:52:00,
2013-07-26 12:58:00,87.8,63.2,30.26,North,0,0.0,0.0,44,0.00,CLR,SCT,0.00,WeatherDisplay:10.37,2013-07-26 16:58:00,
2013-07-26 13:03:00,88.0,63.3,30.26,North,0,0.0,0.0,44,0.00,CLR,SCT,0.00,WeatherDisplay:10.37,2013-07-26 17:03:00,
2013-07-26 13:08:00,88.2,62.8,30.26,North,0,0.0,0.0,43,0.00,CLR,SCT,0.00,WeatherDisplay:10.37,2013-07-26 17:08:00,
2013-07-26 13:13:00,88.2,62.8,30.26,North,0,0.0,0.0,43,0.00,CLR,SCT,0.00,WeatherDisplay:10.37,2013-07-26 17:13:00,
2013-07-26 13:18:00,88.2,62.2,30.26,North,0,0.0,0.0,42,0.00,CLR,SCT,0.00,WeatherDisplay:10.37,2013-07-26 17:18:00,
2013-07-26 13:23:00,88.3,62.3,30.26,North,0,0.0,0.0,42,0.00,CLR,SCT,0.00,WeatherDisplay:10.37,2013-07-26 17:23:00,
2013-07-26 13:28:00,88.7,62.7,30.26,North,0,0.0,0.0,42,0.00,CLR,SCT,0.00,WeatherDisplay:10.37,2013-07-26 17:28:00,
2013-07-26 13:33:00,88.7,62.7,30.26,North,0,0.0,0.0,42,0.00,CLR,SCT,0.00,WeatherDisplay:10.37,2013-07-26 17:33:00,
2013-07-26 13:38:00,89.1,63.0,30.26,North,0,0.0,0.0,42,0.00,CLR,SCT,0.00,WeatherDisplay:10.37,2013-07-26 17:38:00,
2013-07-26 13:43:00,89.2,63.1,30.26,North,0,0.0,0.0,42,0.00,CLR,SCT,0.00,WeatherDisplay:10.37,2013-07-26 17:43:00,
2013-07-26 13:48:00,89.8,62.9,30.26,North,0,0.0,0.0,41,0.00,CLR,SCT,0.00,WeatherDisplay:10.37,2013-07-26 17:48:00,
2013-07-26 13:53:00,90.0,63.1,30.26,North,0,0.0,0.0,41,0.00,CLR,SCT,0.00,WeatherDisplay:10.37,2013-07-26 17:53:00,
2013-07-26 13:58:00,90.0,62.4,30.26,North,0,0.0,0.0,40,0.00,CLR,SCT,0.00,WeatherDisplay:10.37,2013-07-26 17:58:00,
2013-07-26 14:03:00,90.0,61.7,30.26,North,0,0.0,0.0,39,0.00,CLR,SCT,0.00,WeatherDisplay:10.37,2013-07-26 18:03:00,
2013-07-26 14:08:00,90.5,62.2,30.26,North,0,0.0,0.0,39,0.00,CLR,SCT,0.00,WeatherDisplay:10.37,2013-07-26 18:08:00,
2013-07-26 14:13:00,90.7,61.6,30.26,North,0,0.0,0.0,38,0.00,CLR,SCT,0.00,WeatherDisplay:10.37,2013-07-26 18:13:00,
2013-07-26 14:18:00,90.7,61.6,30.26,North,0,0.0,0.0,38,0.00,CLR,SCT,0.00,WeatherDisplay:10.37,2013-07-26 18:18:00,
2013-07-26 14:23:00,90.7,61.6,30.26,North,0,0.0,0.0,38,0.00,CLR,SCT,0.00,WeatherDisplay:10.37,2013-07-26 18:23:00,
2013-07-26 14:28:00,91.0,62.6,30.26,North,0,0.0,0.0,39,0.00,CLR,SCT,0.00,WeatherDisplay:10.37,2013-07-26 18:28:00,
2013-07-26 14:33:00,91.0,61.9,30.26,North,0,0.0,0.0,38,0.00,CLR,SCT,0.00,WeatherDisplay:10.37,2013-07-26 18:33:00,
2013-07-26 14:38:00,90.9,61.7,30.26,North,0,0.0,0.0,38,0.00,CLR,SCT,0.00,WeatherDisplay:10.37,2013-07-26 18:38:00,
2013-07-26 14:43:00,91.2,62.1,30.26,North,0,0.0,0.0,38,0.00,CLR,SCT,0.00,WeatherDisplay:10.37,2013-07-26 18:43:00,
2013-07-26 14:48:00,91.2,62.1,30.26,North,0,0.0,0.0,38,0.00,CLR,SCT,0.00,WeatherDisplay:10.37,2013-07-26 18:48:00,
2013-07-26 14:53:00,91.0,62.6,30.26,North,0,0.0,0.0,39,0.00,CLR,SCT,0.00,WeatherDisplay:10.37,2013-07-26 18:53:00,
2013-07-26 14:58:00,91.4,62.2,30.26,North,0,0.0,0.0,38,0.00,CLR,SCT,0.00,WeatherDisplay:10.37,2013-07-26 18:58:00,
2013-07-26 15:03:00,91.0,62.6,30.26,North,0,0.0,0.0,39,0.00,CLR,SCT,0.00,WeatherDisplay:10.37,2013-07-26 19:03:00,
2013-07-26 15:08:00,91.2,62.8,30.26,North,0,0.0,0.0,39,0.00,CLR,SCT,0.00,WeatherDisplay:10.37,2013-07-26 19:08:00,
2013-07-26 15:13:00,91.6,61.6,30.26,North,0,0.0,0.0,37,0.00,CLR,SCT,0.00,WeatherDisplay:10.37,2013-07-26 19:13:00,
2013-07-26 15:18:00,91.4,62.2,30.26,North,0,0.0,0.0,38,0.00,CLR,SCT,0.00,WeatherDisplay:10.37,2013-07-26 19:18:00,
2013-07-26 15:23:00,91.0,61.9,30.26,North,0,0.0,0.0,38,0.00,CLR,SCT,0.00,WeatherDisplay:10.37,2013-07-26 19:23:00,
2013-07-26 15:28:00,90.9,62.5,30.26,North,0,0.0,0.0,39,0.00,CLR,SCT,0.00,WeatherDisplay:10.37,2013-07-26 19:28:00,
2013-07-26 15:33:00,91.0,62.6,30.26,North,0,0.0,0.0,39,0.00,CLR,SCT,0.00,WeatherDisplay:10.37,2013-07-26 19:33:00,
2013-07-26 15:38:00,91.2,62.1,30.26,North,0,0.0,0.0,38,0.00,CLR,SCT,0.00,WeatherDisplay:10.37,2013-07-26 19:38:00,
2013-07-26 15:43:00,90.7,62.3,30.26,North,0,0.0,0.0,39,0.00,CLR,SCT,0.00,WeatherDisplay:10.37,2013-07-26 19:43:00,
2013-07-26 15:48:00,90.9,61.7,30.26,North,0,0.0,0.0,38,0.00,CLR,SCT,0.00,WeatherDisplay:10.37,2013-07-26 19:48:00,
2013-07-26 15:53:00,91.0,61.9,30.26,North,0,0.0,0.0,38,0.00,CLR,SCT,0.00,WeatherDisplay:10.37,2013-07-26 19:53:00,
2013-07-26 15:58:00,91.6,62.4,30.26,North,0,0.0,0.0,38,0.00,CLR,SCT,0.00,WeatherDisplay:10.37,2013-07-26 19:58:00,
2013-07-26 16:03:00,91.2,62.1,30.26,North,0,0.0,0.0,38,0.00,CLR,SCT,0.00,WeatherDisplay:10.37,2013-07-26 20:03:00,
2013-07-26 16:08:00,91.0,61.9,30.26,North,0,0.0,0.0,38,0.00,CLR,SCT,0.00,WeatherDisplay:10.37,2013-07-26 20:08:00,
2013-07-26 16:13:00,91.2,61.3,30.26,North,0,0.0,0.0,37,0.00,CLR,SCT,0.00,WeatherDisplay:10.37,2013-07-26 20:13:00,
2013-07-26 16:18:00,91.0,61.1,30.26,North,0,0.0,0.0,37,0.00,CLR,SCT,0.00,WeatherDisplay:10.37,2013-07-26 20:18:00,
2013-07-26 16:23:00,90.7,61.6,30.26,North,0,0.0,0.0,38,0.00,CLR,SCT,0.00,WeatherDisplay:10.37,2013-07-26 20:23:00,
2013-07-26 16:28:00,89.8,60.8,30.26,North,0,0.0,0.0,38,0.00,CLR,SCT,0.00,WeatherDisplay:10.37,2013-07-26 20:28:00,
2013-07-26 16:33:00,89.4,61.2,30.26,North,0,0.0,0.0,39,0.00,CLR,SCT,0.00,WeatherDisplay:10.37,2013-07-26 20:33:00,
2013-07-26 16:38:00,89.4,61.2,30.26,North,0,0.0,0.0,39,0.00,CLR,SCT,0.00,WeatherDisplay:10.37,2013-07-26 20:38:00,
2013-07-26 16:43:00,89.8,61.5,30.26,North,0,0.0,0.0,39,0.00,CLR,SCT,0.00,WeatherDisplay:10.37,2013-07-26 20:43:00,
2013-07-26 16:48:00,90.1,61.8,30.26,North,0,0.0,0.0,39,0.00,CLR,SCT,0.00,WeatherDisplay:10.37,2013-07-26 20:48:00,
2013-07-26 16:53:00,90.3,62.7,30.26,North,0,0.0,0.0,40,0.00,CLR,SCT,0.00,WeatherDisplay:10.37,2013-07-26 20:53:00,
2013-07-26 16:58:00,90.5,63.6,30.26,North,0,0.0,0.0,41,0.00,CLR,SCT,0.00,WeatherDisplay:10.37,2013-07-26 20:58:00,
2013-07-26 17:03:00,90.7,64.4,30.26,North,0,0.0,0.0,42,0.00,CLR,SCT,0.00,WeatherDisplay:10.37,2013-07-26 21:03:00,
2013-07-26 17:08:00,90.7,64.4,30.26,North,0,0.0,0.0,42,0.00,CLR,SCT,0.00,WeatherDisplay:10.37,2013-07-26 21:08:00,
2013-07-26 17:13:00,90.3,64.8,30.26,North,0,0.0,0.0,43,0.00,CLR,SCT,0.00,WeatherDisplay:10.37,2013-07-26 21:13:00,
2013-07-26 17:18:00,90.3,64.8,30.26,North,0,0.0,0.0,43,0.00,CLR,SCT,0.00,WeatherDisplay:10.37,2013-07-26 21:18:00,
2013-07-26 17:24:00,90.5,64.9,30.26,North,0,0.0,0.0,43,0.00,CLR,SCT,0.00,WeatherDisplay:10.37,2013-07-26 21:24:00,
2013-07-26 17:28:00,90.5,64.9,30.26,North,0,0.0,0.0,43,0.00,CLR,SCT,0.00,WeatherDisplay:10.37,2013-07-26 21:28:00,
2013-07-26 17:34:00,90.3,64.8,30.26,North,0,0.0,0.0,43,0.00,CLR,SCT,0.00,WeatherDisplay:10.37,2013-07-26 21:34:00,
2013-07-26 17:39:00,90.1,64.6,30.26,North,0,0.0,0.0,43,0.00,CLR,SCT,0.00,WeatherDisplay:10.37,2013-07-26 21:39:00,
2013-07-26 17:44:00,89.6,64.1,30.26,North,0,0.0,0.0,43,0.00,CLR,SCT,0.00,WeatherDisplay:10.37,2013-07-26 21:44:00,
2013-07-26 17:49:00,89.1,63.7,30.26,North,0,0.0,0.0,43,0.00,CLR,SCT,0.00,WeatherDisplay:10.37,2013-07-26 21:49:00,
2013-07-26 17:54:00,89.2,64.5,30.26,North,0,0.0,0.0,44,0.00,CLR,SCT,0.00,WeatherDisplay:10.37,2013-07-26 21:54:00,
2013-07-26 17:59:00,90.3,65.4,30.26,North,0,0.0,0.0,44,0.00,CLR,SCT,0.00,WeatherDisplay:10.37,2013-07-26 21:59:00,
2013-07-26 18:04:00,91.0,65.4,30.26,North,0,0.0,0.0,43,0.00,CLR,SCT,0.00,WeatherDisplay:10.37,2013-07-26 22:04:00,
2013-07-26 18:09:00,91.8,64.7,30.26,North,0,0.0,0.0,41,0.00,CLR,SCT,0.00,WeatherDisplay:10.37,2013-07-26 22:09:00,
2013-07-26 18:14:00,97.0,66.4,30.26,North,0,0.0,0.0,37,0.00,CLR,SCT,0.00,WeatherDisplay:10.37,2013-07-26 22:14:00,
2013-07-26 18:19:00,102.7,65.4,30.26,North,0,0.0,0.0,30,0.00,CLR,SCT,0.00,WeatherDisplay:10.37,2013-07-26 22:19:00,
2013-07-26 18:24:00,104.0,63.4,30.26,North,0,0.0,0.0,27,0.00,CLR,SCT,0.00,WeatherDisplay:10.37,2013-07-26 22:24:00,
2013-07-26 18:29:00,97.3,61.6,30.26,North,0,0.0,0.0,31,0.00,CLR,SCT,0.00,WeatherDisplay:10.37,2013-07-26 22:29:00,
2013-07-26 18:34:00,93.2,62.3,30.26,North,0,0.0,0.0,36,0.00,CLR,SCT,0.00,WeatherDisplay:10.37,2013-07-26 22:34:00,
2013-07-26 18:39:00,91.8,63.3,30.26,North,0,0.0,0.0,39,0.00,CLR,SCT,0.00,WeatherDisplay:10.37,2013-07-26 22:39:00,
2013-07-26 18:44:00,90.5,61.4,30.26,North,0,0.0,0.0,38,0.00,CLR,SCT,0.00,WeatherDisplay:10.37,2013-07-26 22:44:00,
2013-07-26 18:49:00,90.0,61.7,30.26,North,0,0.0,0.0,39,0.00,CLR,SCT,0.00,WeatherDisplay:10.37,2013-07-26 22:49:00,
2013-07-26 18:54:00,89.4,61.2,30.26,North,0,0.0,0.0,39,0.00,CLR,SCT,0.00,WeatherDisplay:10.37,2013-07-26 22:54:00,
2013-07-26 18:59:00,89.1,60.9,30.26,North,0,0.0,0.0,39,0.00,CLR,SCT,0.00,WeatherDisplay:10.37,2013-07-26 22:59:00,
2013-07-26 19:04:00,88.9,62.1,30.26,North,0,0.0,0.0,41,0.00,CLR,SCT,0.00,WeatherDisplay:10.37,2013-07-26 23:04:00,
2013-07-26 19:09:00,88.2,62.2,30.26,North,0,0.0,0.0,42,0.00,CLR,SCT,0.00,WeatherDisplay:10.37,2013-07-26 23:09:00,
2013-07-26 19:14:00,85.3,62.2,30.26,North,0,0.0,0.0,46,0.00,CLR,SCT,0.00,WeatherDisplay:10.37,2013-07-26 23:14:00,
2013-07-26 19:19:00,84.4,61.9,30.26,North,0,0.0,0.0,47,0.00,CLR,SCT,0.00,WeatherDisplay:10.37,2013-07-26 23:19:00,
2013-07-26 19:24:00,83.8,62.1,30.26,North,0,0.0,0.0,48,0.00,CLR,SCT,0.00,WeatherDisplay:10.37,2013-07-26 23:24:00,
2013-07-26 19:29:00,82.6,62.1,30.26,North,0,0.0,0.0,50,0.00,CLR,SCT,0.00,WeatherDisplay:10.37,2013-07-26 23:29:00,
2013-07-26 19:34:00,81.7,62.3,30.26,North,0,0.0,0.0,52,0.00,CLR,SCT,0.00,WeatherDisplay:10.37,2013-07-26 23:34:00,
2013-07-26 19:39:00,81.1,61.8,30.26,North,0,0.0,0.0,52,0.00,CLR,SCT,0.00,WeatherDisplay:10.37,2013-07-26 23:39:00,
2013-07-26 19:44:00,80.4,62.2,30.26,North,0,0.0,0.0,54,0.00,CLR,SCT,0.00,WeatherDisplay:10.37,2013-07-26 23:44:00,
2013-07-26 19:49:00,79.3,62.3,30.26,North,0,0.0,0.0,56,0.00,CLR,SCT,0.00,WeatherDisplay:10.37,2013-07-26 23:49:00,
2013-07-26 19:54:00,79.3,62.8,30.26,North,0,0.0,0.0,57,0.00,CLR,SCT,0.00,WeatherDisplay:10.37,2013-07-26 23:54:00,
2013-07-26 19:59:00,79.2,63.1,30.26,North,0,0.0,0.0,58,0.00,CLR,SCT,0.00,WeatherDisplay:10.37,2013-07-26 23:59:00,
2013-07-26 20:04:00,79.2,63.1,30.26,North,0,0.0,0.0,58,0.00,CLR,SCT,0.00,WeatherDisplay:10.37,2013-07-27 00:04:00,
2013-07-26 20:09:00,79.3,63.8,30.26,North,0,0.0,0.0,59,0.00,CLR,SCT,0.00,WeatherDisplay:10.37,2013-07-27 00:09:00,
2013-07-26 20:14:00,79.7,63.6,30.26,North,0,0.0,0.0,58,0.00,CLR,SCT,0.00,WeatherDisplay:10.37,2013-07-27 00:14:00,
2013-07-26 20:19:00,79.7,63.6,30.26,North,0,0.0,0.0,58,0.00,CLR,SCT,0.00,WeatherDisplay:10.37,2013-07-27 00:19:00,
2013-07-26 20:24:00,80.1,64.4,30.26,North,0,0.0,0.0,59,0.00,CLR,SCT,0.00,WeatherDisplay:10.37,2013-07-27 00:24:00,
2013-07-26 20:29:00,80.1,64.4,30.26,North,0,0.0,0.0,59,0.00,CLR,SCT,0.00,WeatherDisplay:10.37,2013-07-27 00:29:00,
2013-07-26 20:34:00,79.9,63.8,30.26,North,0,0.0,0.0,58,0.00,CLR,SCT,0.00,WeatherDisplay:10.37,2013-07-27 00:34:00,
2013-07-26 20:39:00,79.5,63.9,30.26,North,0,0.0,0.0,59,0.00,CLR,SCT,0.00,WeatherDisplay:10.37,2013-07-27 00:39:00,
2013-07-26 20:44:00,79.5,64.4,30.26,North,0,0.0,0.0,60,0.00,CLR,SCT,0.00,WeatherDisplay:10.37,2013-07-27 00:44:00,
2013-07-26 20:49:00,79.7,64.6,30.26,North,0,0.0,0.0,60,0.00,CLR,SCT,0.00,WeatherDisplay:10.37,2013-07-27 00:49:00,
2013-07-26 20:54:00,79.9,64.8,30.26,North,0,0.0,0.0,60,0.00,CLR,SCT,0.00,WeatherDisplay:10.37,2013-07-27 00:54:00,
2013-07-26 20:59:00,80.1,64.9,30.26,North,0,0.0,0.0,60,0.00,CLR,SCT,0.00,WeatherDisplay:10.37,2013-07-27 00:59:00,
2013-07-26 21:04:00,79.9,64.8,30.26,North,0,0.0,0.0,60,0.00,CLR,SCT,0.00,WeatherDisplay:10.37,2013-07-27 01:04:00,
2013-07-26 21:09:00,79.7,64.6,30.26,North,0,0.0,0.0,60,0.00,CLR,SCT,0.00,WeatherDisplay:10.37,2013-07-27 01:09:00,
2013-07-26 21:14:00,80.1,64.9,30.26,North,0,0.0,0.0,60,0.00,CLR,SCT,0.00,WeatherDisplay:10.37,2013-07-27 01:14:00,
2013-07-26 21:19:00,80.1,64.9,30.26,North,0,0.0,0.0,60,0.00,CLR,SCT,0.00,WeatherDisplay:10.37,2013-07-27 01:19:00,
2013-07-26 21:24:00,80.4,65.3,30.26,North,0,0.0,0.0,60,0.00,CLR,SCT,0.00,WeatherDisplay:10.37,2013-07-27 01:24:00,
2013-07-26 21:29:00,80.4,65.3,30.26,North,0,0.0,0.0,60,0.00,CLR,SCT,0.00,WeatherDisplay:10.37,2013-07-27 01:29:00,
2013-07-26 21:34:00,80.2,65.1,30.26,North,0,0.0,0.0,60,0.00,CLR,SCT,0.00,WeatherDisplay:10.37,2013-07-27 01:34:00,
2013-07-26 21:39:00,80.1,64.9,30.26,North,0,0.0,0.0,60,0.00,CLR,SCT,0.00,WeatherDisplay:10.37,2013-07-27 01:39:00,
2013-07-26 21:44:00,80.1,65.4,30.26,North,0,0.0,0.0,61,0.00,CLR,SCT,0.00,WeatherDisplay:10.37,2013-07-27 01:44:00,
2013-07-26 21:49:00,80.1,65.4,30.26,North,0,0.0,0.0,61,0.00,CLR,SCT,0.00,WeatherDisplay:10.37,2013-07-27 01:49:00,
2013-07-26 21:54:00,80.1,65.9,30.26,North,0,0.0,0.0,62,0.00,CLR,SCT,0.00,WeatherDisplay:10.37,2013-07-27 01:54:00,
2013-07-26 21:59:00,80.1,65.9,30.26,North,0,0.0,0.0,62,0.00,CLR,SCT,0.00,WeatherDisplay:10.37,2013-07-27 01:59:00,
2013-07-26 22:04:00,79.9,65.2,30.26,North,0,0.0,0.0,61,0.00,CLR,SCT,0.00,WeatherDisplay:10.37,2013-07-27 02:04:00,
2013-07-26 22:09:00,80.1,65.4,30.26,North,0,0.0,0.0,61,0.00,CLR,SCT,0.00,WeatherDisplay:10.37,2013-07-27 02:09:00,
2013-07-26 22:14:00,80.1,65.9,30.26,North,0,0.0,0.0,62,0.00,CLR,SCT,0.00,WeatherDisplay:10.37,2013-07-27 02:14:00,
2013-07-26 22:19:00,80.1,66.3,30.26,North,0,0.0,0.0,63,0.00,CLR,SCT,0.00,WeatherDisplay:10.37,2013-07-27 02:19:00,
2013-07-26 22:24:00,80.2,66.5,30.26,North,0,0.0,0.0,63,0.00,CLR,SCT,0.00,WeatherDisplay:10.37,2013-07-27 02:24:00,
2013-07-26 22:29:00,80.2,66.5,30.26,North,0,0.0,0.0,63,0.00,CLR,SCT,0.00,WeatherDisplay:10.37,2013-07-27 02:29:00,
2013-07-26 22:34:00,80.4,66.2,30.26,North,0,0.0,0.0,62,0.00,CLR,SCT,0.00,WeatherDisplay:10.37,2013-07-27 02:34:00,
2013-07-26 22:39:00,80.1,66.3,30.26,North,0,0.0,0.0,63,0.00,CLR,SCT,0.00,WeatherDisplay:10.37,2013-07-27 02:39:00,
2013-07-26 22:44:00,80.2,67.0,30.26,North,0,0.0,0.0,64,0.00,CLR,SCT,0.00,WeatherDisplay:10.37,2013-07-27 02:44:00,
2013-07-26 22:49:00,80.4,66.7,30.26,North,0,0.0,0.0,63,0.00,CLR,SCT,0.00,WeatherDisplay:10.37,2013-07-27 02:49:00,
2013-07-26 22:54:00,80.2,67.0,30.26,North,0,0.0,0.0,64,0.00,CLR,SCT,0.00,WeatherDisplay:10.37,2013-07-27 02:54:00,
2013-07-26 22:59:00,80.4,67.1,30.26,North,0,0.0,0.0,64,0.00,CLR,SCT,0.00,WeatherDisplay:10.37,2013-07-27 02:59:00,
2013-07-26 23:04:00,80.2,67.0,30.26,North,0,0.0,0.0,64,0.00,CLR,SCT,0.00,WeatherDisplay:10.37,2013-07-27 03:04:00,
2013-07-26 23:09:00,80.4,67.1,30.26,North,0,0.0,0.0,64,0.00,CLR,SCT,0.00,WeatherDisplay:10.37,2013-07-27 03:09:00,
2013-07-26 23:14:00,80.4,67.1,30.26,North,0,0.0,0.0,64,0.00,CLR,SCT,0.00,WeatherDisplay:10.37,2013-07-27 03:14:00,
2013-07-26 23:19:00,80.4,66.7,30.26,North,0,0.0,0.0,63,0.00,CLR,SCT,0.00,WeatherDisplay:10.37,2013-07-27 03:19:00,
2013-07-26 23:25:00,80.4,66.7,30.26,North,0,0.0,0.0,63,0.00,CLR,SCT,0.00,WeatherDisplay:10.37,2013-07-27 03:25:00,
2013-07-26 23:30:00,80.4,66.7,30.26,North,0,0.0,0.0,63,0.00,CLR,SCT,0.00,WeatherDisplay:10.37,2013-07-27 03:30:00,
2013-07-26 23:35:00,80.4,67.1,30.26,North,0,0.0,0.0,64,0.00,CLR,SCT,0.00,WeatherDisplay:10.37,2013-07-27 03:35:00,
2013-07-26 23:40:00,79.7,66.9,30.26,North,0,0.0,0.0,65,0.00,CLR,SCT,0.00,WeatherDisplay:10.37,2013-07-27 03:40:00,
2013-07-26 23:45:00,79.3,66.5,30.26,North,0,0.0,0.0,65,0.00,CLR,SCT,0.00,WeatherDisplay:10.37,2013-07-27 03:45:00,
2013-07-26 23:50:00,79.3,67.0,30.26,North,0,0.0,0.0,66,0.00,CLR,SCT,0.00,WeatherDisplay:10.37,2013-07-27 03:50:00,
2013-07-26 23:55:00,79.2,66.8,30.26,North,0,0.0,0.0,66,0.00,CLR,SCT,0.00,WeatherDisplay:10.37,2013-07-27 03:55:00,